#timestamp,LO_Frequency,Hit,StdDev 
1697270415.7,286046997.7,N
1697270435.5,286046999.0,N
1697270455.3,286046999.6,N
1697270475.2,286046996.8,N
1697270495.0,286046997.0,N
1697270495.9,286046997.0,N
1697270515.7,286046996.5,N
1697270535.6,286046999.4,N
1697270555.4,286046998.6,N
1697270575.3,286046999.3,N
1697270595.1,286046998.1,N
1697270615.8,286046998.6,N
1697270635.7,286047001.1,N
1697270655.5,286046998.4,N
1697270675.3,286046998.9,N
1697270695.2,286046998.2,N
1697270715.0,286047000.8,N
1697270715.9,286047000.8,N
1697270735.8,286046999.4,N
1697270755.6,286046996.5,N
1697270775.4,286046996.6,N
1697270795.3,286046999.3,N
1697270815.1,286046999.6,N
1697270835.9,286046997.0,N
1697270855.7,286046996.7,N
1697270875.5,286046996.9,N
1697270895.4,286046999.3,N
1697270915.2,286046999.3,N
1697270935.0,286046999.5,N
1697270935.9,286046999.5,N
1697270955.8,286046996.6,N
1697270975.6,286046996.7,N
1697270995.5,286046998.8,N
1697271015.3,286046999.4,N
1697271035.1,286046997.0,N
1697271055.9,286046997.3,N
1697271075.7,286046997.3,N
1697271095.5,286046997.6,N
1697271115.4,286046995.0,Y
1697271135.2,286046997.1,P
1697271155.1,286046997.0,P
1697271156.0,286046997.0,P
1697271175.8,286046999.2,N
1697271195.7,286046999.2,N
1697271215.5,286046998.4,N
1697271235.3,286046999.0,N
1697271255.2,286046998.5,N
1697271275.0,286046998.5,N
1697271275.9,286046998.5,N
1697271295.7,286047001.1,N
1697271315.6,286046998.4,N
1697271335.4,286047001.1,N
1697271355.3,286046998.4,N
1697271375.1,286046998.3,N
1697271376.0,286046998.3,N
1697271395.8,286046998.9,N
1697271415.7,286047001.1,N
1697271435.5,286046998.2,N
1697271455.3,286047001.1,N
1697271475.2,286047000.3,N
1697271495.1,286047000.6,N
1697271496.0,286047000.6,N
1697271515.8,286047002.4,N
1697271535.6,286047001.8,N
1697271555.5,286047004.4,N
1697271575.3,286047004.2,N
1697271595.1,286047001.9,N
1697271615.9,286047001.9,N
1697271635.7,286047001.7,N
1697271655.6,286047004.0,N
1697271675.4,286047002.1,N
1697271695.2,286047002.3,N
1697271715.1,286047001.6,N
1697271716.0,286047001.6,N
1697271735.8,286047001.7,N
1697271755.7,286047002.9,N
1697271775.5,286047002.9,N
1697271795.3,286047005.5,N
1697271815.2,286047005.9,Y
1697271835.0,286047003.9,P
1697271835.9,286047003.9,N
1697271855.8,286047003.8,P
1697271875.6,286047004.1,Y
1697271895.4,286047000.5,P
1697271915.3,286047000.4,N
1697271935.1,286047000.4,N
1697271955.9,286047001.1,N
1697271975.1,286046999.9,N
1697271995.9,286047002.7,N
1697272015.7,286046999.7,N
1697272035.5,286046999.9,N
1697272055.4,286047002.8,N
1697272075.2,286047002.8,N
1697272095.0,286047002.2,N
1697272095.9,286047002.2,N
1697272115.8,286047002.4,N
1697272135.6,286047002.7,N
1697272155.5,286047002.3,N
1697272175.3,286047002.5,N
1697272195.1,286047001.3,N
1697272215.9,286047004.4,Y
1697272235.7,286047002.6,P
1697272255.6,286047002.0,P
1697272275.4,286047002.8,P
1697272295.2,286046999.9,N
1697272315.1,286047000.2,N
1697272316.0,286047000.2,N
1697272335.8,286047000.1,N
1697272355.6,286047000.1,N
1697272375.5,286047000.1,N
1697272395.3,286047002.6,N
1697272415.2,286047002.8,N
1697272435.9,286046999.7,N
1697272455.7,286047001.9,N
1697272475.6,286047001.6,N
1697272495.4,286047001.7,N
1697272515.2,286047001.7,N
1697272535.1,286047001.9,N
1697272566.0,286047002.2,E
1697272575.0,286047000.1,N
1697272575.9,286047000.1,P
1697272595.8,286046998.2,P
1697272615.6,286047001.0,N
1697272635.4,286047001.1,N
1697272655.3,286046999.3,N
1697272675.1,286046998.4,N
1697272695.9,286046998.2,N
1697272715.7,286046998.1,N
1697272735.5,286047000.5,N
1697272755.4,286047001.2,N
1697272775.2,286046998.1,N
1697272795.0,286046998.3,N
1697272795.9,286046998.3,N
1697272815.8,286047001.0,N
1697272835.6,286046998.5,N
1697272855.5,286046998.2,N
1697272875.3,286047000.9,N
1697272895.1,286047002.6,N
1697272915.9,286047002.6,N
1697272935.7,286047000.0,N
1697272955.5,286047001.6,N
1697272975.4,286047002.7,N
1697272995.2,286046999.9,N
1697273015.1,286046999.7,N
1697273016.0,286046999.7,N
1697273035.8,286047002.6,N
1697273055.6,286047002.2,N
1697273075.5,286047002.2,N
1697273095.3,286047002.0,N
1697273115.1,286047001.6,N
1697273135.9,286047002.3,N
1697273155.7,286047000.6,N
1697273175.6,286046999.9,N
1697273195.4,286047000.5,N
1697273215.2,286047001.2,N
1697273235.1,286046998.6,N
1697273236.0,286046998.6,N
1697273255.8,286046998.6,N
1697273275.6,286047000.8,N
1697273295.5,286046999.7,N
1697273315.3,286047002.8,N
1697273335.2,286047000.7,N
1697273355.9,286046999.8,N
1697273375.7,286047000.1,N
1697273395.6,286047002.8,N
1697273415.4,286047000.2,N
1697273435.2,286047000.2,N
1697273455.1,286046999.7,N
1697273456.0,286046999.7,N
1697273475.8,286047000.2,N
1697273495.7,286047002.6,N
1697273515.5,286047002.2,N
1697273535.3,286047003.9,Y
1697273555.2,286047002.1,P
1697273575.0,286047002.2,P
1697273575.9,286047002.2,P
1697273595.8,286047002.0,Y
1697273615.6,286046998.2,P
1697273635.1,286047001.2,N
1697273636.0,286047001.2,N
1697273655.8,286047000.9,N
1697273675.7,286047000.3,N
1697273695.5,286047000.8,N
1697273715.3,286046998.5,N
1697273735.2,286046998.2,N
1697273755.0,286047000.8,N
1697273755.9,286047000.8,N
1697273775.7,286047000.5,N
1697273795.6,286047000.3,N
1697273815.4,286047000.5,N
1697273835.3,286047000.2,N
1697273855.1,286047000.7,N
1697273875.8,286047000.1,N
1697273895.7,286046999.9,N
1697273915.5,286047002.7,N
1697273965.4,286047000.7,E
1697273975.3,286046998.6,N
1697273995.1,286046998.6,P
